SIA326J WSSS-EDDF

Flight info

Callsign SIA326J
Flight time N/A
Altitude 34000
Route AROSO5B AROSO Y513 KALIL Y501 RINBA Y503 VPL P628 KAGUL/N0505F360 P628 RK G202 ZB L750 GODSI/N0500F380 L750 RANAH B449 ETRAP B447 KRS B143 TUNEK A909 RODAR M11 REBLO UM11 CRM UL746 INB/N0497F400 UL746 ODERO DCT OPT DCT IRLOX DCT BUDOP DCT MAREG DCT KOVEL DCT DITIS DCT RAPET T170 VAGAB/N0395F240 T170 GAPLA T178 KERAX KERAX5A
Aircraft A388/J-SADE2E3FGHIJ3J4J5M1RWXY/LB1D1

Departure

Time N/A
Airport Singapore Changi Airport (WSSS)

Arrival

Time 2026-05-04 16:20
Airport Frankfurt Main Airport (EDDF)
Time Latitude Longitude Altitude Speed Heading
2026-05-04 15:50 50.09692 12.54987 39971 ft 465 kts 302°
2026-05-04 15:50 50.13365 12.46718 39970 ft 465 kts 302°
2026-05-04 15:51 50.16976 12.38336 39970 ft 463 kts 297°
2026-05-04 15:51 50.19916 12.29466 39748 ft 454 kts 290°
2026-05-04 15:52 50.21084 12.24931 39509 ft 447 kts 287°
2026-05-04 15:52 50.22118 12.20356 39281 ft 447 kts 287°
2026-05-04 15:52 50.23177 12.15790 39077 ft 447 kts 287°
2026-05-04 15:52 50.24226 12.11280 38851 ft 447 kts 287°
2026-05-04 15:53 50.25279 12.06724 38640 ft 446 kts 287°
2026-05-04 15:53 50.26327 12.02154 38366 ft 446 kts 287°
2026-05-04 15:53 50.27369 11.97598 38079 ft 447 kts 287°
2026-05-04 15:53 50.28421 11.93020 37802 ft 448 kts 287°
2026-05-04 15:54 50.29477 11.88420 37520 ft 448 kts 287°
2026-05-04 15:54 50.30527 11.83834 37254 ft 448 kts 287°
2026-05-04 15:54 50.31578 11.79235 36976 ft 449 kts 287°
2026-05-04 15:54 50.32625 11.74638 36709 ft 449 kts 287°
2026-05-04 15:55 50.33673 11.70028 36442 ft 449 kts 287°
2026-05-04 15:55 50.34719 11.65414 36175 ft 449 kts 287°
2026-05-04 15:55 50.35761 11.60809 35920 ft 449 kts 287°
2026-05-04 15:55 50.36802 11.56199 35683 ft 450 kts 286°
2026-05-04 15:56 50.37843 11.51578 35424 ft 450 kts 286°
2026-05-04 15:56 50.38878 11.46971 35166 ft 449 kts 286°
2026-05-04 15:56 50.39896 11.42430 34661 ft 447 kts 286°
2026-05-04 15:56 50.40942 11.37756 33735 ft 450 kts 286°
2026-05-04 15:57 50.41978 11.33116 32929 ft 449 kts 286°
2026-05-04 15:57 50.42998 11.28539 32463 ft 440 kts 286°
2026-05-04 15:57 50.43986 11.24094 32072 ft 433 kts 286°
2026-05-04 15:57 50.44972 11.19641 31503 ft 429 kts 285°
2026-05-04 15:58 50.45944 11.15240 30967 ft 424 kts 285°
2026-05-04 15:58 50.46905 11.10878 30411 ft 420 kts 285°
2026-05-04 15:58 50.47856 11.06556 29828 ft 417 kts 285°
2026-05-04 15:58 50.48782 11.02340 29287 ft 412 kts 285°
2026-05-04 15:59 50.49709 10.98110 28766 ft 406 kts 285°
2026-05-04 15:59 50.50621 10.93941 28234 ft 402 kts 285°
2026-05-04 15:59 50.51523 10.89805 27705 ft 398 kts 285°
2026-05-04 15:59 50.52414 10.85712 27191 ft 394 kts 285°
2026-05-04 16:00 50.53290 10.81682 26675 ft 390 kts 285°
2026-05-04 16:00 50.53851 10.79030 26280 ft 387 kts 282°
2026-05-04 16:00 50.54228 10.74844 25392 ft 388 kts 265°
2026-05-04 16:00 50.53800 10.70678 24868 ft 386 kts 250°
2026-05-04 16:01 50.52865 10.66713 24411 ft 388 kts 247°
2026-05-04 16:01 50.51905 10.62745 23870 ft 388 kts 248°
2026-05-04 16:01 50.50964 10.58777 23267 ft 386 kts 248°
2026-05-04 16:01 50.50049 10.54846 22712 ft 380 kts 248°
2026-05-04 16:02 50.49156 10.50969 22164 ft 375 kts 248°
2026-05-04 16:02 50.48276 10.47137 21632 ft 370 kts 248°
2026-05-04 16:02 50.46546 10.39625 20596 ft 362 kts 248°
2026-05-04 16:03 50.45691 10.35924 20065 ft 359 kts 248°
2026-05-04 16:03 50.44853 10.32301 19567 ft 356 kts 248°
2026-05-04 16:03 50.44010 10.28665 19035 ft 354 kts 248°
2026-05-04 16:03 50.43171 10.25053 18577 ft 350 kts 248°
2026-05-04 16:04 50.42339 10.21478 18051 ft 348 kts 248°
2026-05-04 16:04 50.40692 10.14413 17021 ft 341 kts 248°
2026-05-04 16:04 50.39880 10.10938 16542 ft 338 kts 248°
2026-05-04 16:05 50.39073 10.07490 16060 ft 335 kts 248°
2026-05-04 16:05 50.38271 10.04071 15567 ft 334 kts 248°
2026-05-04 16:05 50.36670 9.97260 14615 ft 331 kts 248°
2026-05-04 16:06 50.35876 9.93889 14134 ft 329 kts 248°
2026-05-04 16:06 50.33523 9.83932 12700 ft 322 kts 248°
2026-05-04 16:07 50.32747 9.80654 12247 ft 319 kts 247°
2026-05-04 16:07 50.30454 9.71011 10888 ft 311 kts 247°
2026-05-04 16:08 50.29712 9.67901 10444 ft 308 kts 247°
2026-05-04 16:08 50.27576 9.58954 9916 ft 282 kts 246°
2026-05-04 16:09 50.26204 9.53251 9643 ft 280 kts 246°
2026-05-04 16:09 50.24831 9.47548 9073 ft 277 kts 246°
2026-05-04 16:10 50.23509 9.42058 8498 ft 265 kts 246°
2026-05-04 16:11 50.21681 9.34150 7651 ft 251 kts 248°
2026-05-04 16:11 50.21096 9.31594 7386 ft 248 kts 248°
2026-05-04 16:12 50.19350 9.24023 6655 ft 240 kts 248°
2026-05-04 16:12 50.17754 9.16882 6009 ft 231 kts 249°
2026-05-04 16:13 50.16718 9.12150 5494 ft 230 kts 247°
2026-05-04 16:13 50.15580 9.07351 4997 ft 239 kts 248°
2026-05-04 16:14 50.14424 9.02477 5003 ft 241 kts 248°
2026-05-04 16:14 50.13291 8.97699 5003 ft 231 kts 248°
2026-05-04 16:15 50.11625 8.90685 4670 ft 234 kts 248°
2026-05-04 16:16 50.10485 8.85884 3975 ft 234 kts 249°
2026-05-04 16:16 50.08858 8.79042 3108 ft 213 kts 251°
2026-05-04 16:17 50.07910 8.75065 2586 ft 169 kts 252°
2026-05-04 16:18 50.06858 8.70642 1985 ft 138 kts 251°
2026-05-04 16:18 50.06530 8.69254 1799 ft 133 kts 252°
2026-05-04 16:19 50.05563 8.65218 1264 ft 130 kts 251°
2026-05-04 16:19 50.04929 8.62531 946 ft 131 kts 251°
2026-05-04 16:20 50.03962 8.58485 383 ft 129 kts 253°
2026-05-04 16:20 50.03593 8.56930 361 ft 37 kts 250°
2026-05-04 16:21 50.03440 8.56221 357 ft 9 kts 264°
2026-05-04 16:22 50.03452 8.55913 355 ft 7 kts 279°
2026-05-04 16:22 50.03457 8.55873 350 ft 7 kts 280°
2026-05-04 16:23 50.03538 8.55715 357 ft 8 kts 34°
2026-05-04 16:24 50.03713 8.56396 364 ft 22 kts 70°
2026-05-04 16:25 50.03818 8.56836 366 ft 21 kts 69°
2026-05-04 16:26 50.04043 8.57777 373 ft 24 kts 69°
2026-05-04 16:26 50.04173 8.58164 376 ft 13 kts 24°
2026-05-04 16:27 50.04222 8.58197 376 ft 2 kts 23°
2026-05-04 16:28 50.04401 8.58140 376 ft 13 kts 339°
2026-05-04 16:28 50.04638 8.58000 372 ft 8 kts 339°
2026-05-04 16:29 50.04694 8.57968 371 ft 9 kts 340°
2026-05-04 16:30 50.04823 8.58137 370 ft 13 kts 70°
2026-05-04 16:31 50.04869 8.58331 369 ft 3 kts 55°
2026-05-04 16:31 50.04929 8.58312 365 ft 3 kts 341°